Location: Davayat
(45.9471°N, 3.1105°E)
Time: 17:08:42
(UTC+00:00)

Meteor 1-11 Rocket - Visible Passes

Search period start: 12 April 2021 00:00
Search period end: 22 April 2021 00:00
Orbit: 831 x 916 km, 81.2° (Epoch: 11 April)

Date Brightness Start Highest point End Pass type
(mag) Time Alt. Az. Time Alt. Az. Time Alt. Az.
12 Apr 4.4 00:58:24 10° N 01:03:44 52° ENE 01:03:44 52° ENE visible
12 Apr 5.1 02:42:32 10° NW 02:46:13 24° WNW 02:46:13 24° WNW visible
13 Apr 4.4 00:53:11 10° N 00:58:26 54° NE 00:58:26 54° NE visible
13 Apr 5.2 02:37:23 10° NW 02:40:54 23° WNW 02:40:54 23° WNW visible
14 Apr 4.3 00:47:57 10° N 00:53:08 55° NE 00:53:08 55° NE visible
14 Apr 5.2 02:32:15 10° NW 02:35:37 22° WNW 02:35:37 22° WNW visible
14 Apr 6.3 23:02:54 10° NE 23:03:50 10° NE 23:04:46 10° ENE visible
15 Apr 4.3 00:42:43 10° N 00:47:52 57° NE 00:47:52 57° NE visible
15 Apr 5.3 02:27:08 10° NW 02:30:20 21° WNW 02:30:20 21° WNW visible
15 Apr 6.3 22:57:11 10° NE 22:58:42 11° NE 23:00:08 10° ENE visible
16 Apr 4.3 00:37:31 10° N 00:42:37 58° NE 00:42:37 58° NE visible
16 Apr 5.4 02:22:01 10° NW 02:25:06 20° WNW 02:25:06 20° WNW visible
16 Apr 6.2 22:51:38 10° NE 22:53:33 11° ENE 22:54:54 11° ENE visible
17 Apr 4.2 00:32:18 10° N 00:37:23 60° NE 00:37:23 60° NE visible
17 Apr 5.5 02:16:53 10° NW 02:19:52 19° WNW 02:19:52 19° WNW visible
17 Apr 6.1 22:46:10 10° NE 22:48:25 12° ENE 22:49:41 11° ENE visible
18 Apr 4.2 00:27:05 10° N 00:32:10 62° NNE 00:32:10 62° NNE visible
18 Apr 5.5 02:11:47 10° NW 02:14:39 18° WNW 02:14:39 18° WNW visible
18 Apr 6.1 22:40:44 10° NNE 22:43:16 13° ENE 22:44:28 12° ENE visible
19 Apr 4.1 00:21:53 10° N 00:26:57 63° NNE 00:26:57 63° NNE visible
19 Apr 5.6 02:06:41 10° NW 02:09:27 17° WNW 02:09:27 17° WNW visible
19 Apr 6.0 22:35:21 10° NNE 22:38:07 13° ENE 22:39:17 13° ENE visible
20 Apr 4.1 00:16:39 10° N 00:21:46 65° NNE 00:21:46 65° NNE visible
20 Apr 5.6 02:01:36 10° NW 02:04:15 17° WNW 02:04:15 17° WNW visible
20 Apr 6.0 22:29:58 10° NNE 22:32:59 14° ENE 22:34:06 13° ENE visible
21 Apr 4.1 00:11:27 10° N 00:16:35 67° NNE 00:16:35 67° NNE visible
21 Apr 5.7 01:56:31 10° NW 01:59:05 16° WNW 01:59:05 16° WNW visible
21 Apr 5.9 22:24:38 10° NNE 22:27:50 15° ENE 22:28:56 14° ENE visible
